Tracking 25710 objects as of 6-Jul-2022
HD Live streaming from Space Station
objects crossing your sky now

STARLINK-3559

Track STARLINK-3559 now!
10-day predictions
STARLINK-3559 is classified as:


NORAD ID: 51860
Int'l Code: 2022-022J
Perigee: 545.9 km
Apogee: 548.0 km
Inclination: 53.2 °
Period: 95.4 minutes
Semi major axis: 6917 km
RCS: Unknown
Launch date: March 3, 2022
Source: United States (US)
Launch site: AIR FORCE EASTERN TEST RANGE (AFETR)
aabbcc
Your satellite tracking list
Your tracking list is empty




NASA's NSSDC Master Catalog

Two Line Element Set (TLE):
1 51860U 22022J   22187.58334491  .00009686  00000-0  62613-3 0  9995
2 51860  53.2157 274.0572 0001557  66.8742 354.0577 15.08823381 20500
Source of the keplerian elements: AFSPC